星链-5362 (STARLINK-5362 )

导读

STARLINK-5362是美国SpaceX公司星链(Starlink)星座中的一颗卫星,于北京时间2023年2月2日8时发射升空。星链星座旨在构建全球卫星互联网,为全球各地提供高速低延迟网络接入服务,该卫星加入星座后,进一步扩充了星链的网络覆盖与服务能力。

基本信息
目录编号:
55493
目录名称:
STARLINK-5362
国际标识:
2023-015AW
轨道中心:
EARTH
卫星名称:
星链-5362
卫星全名:
星链-5362 (STARLINK-5362 )
卫星状态:
在轨 (已飞行1310 天)
发射日期:
2023-02-02 UTC
国别 :
美国 (US)
星等 :
--
轨道信息
数据来源 国际轨道数据
星历时间: 2026-09-04T05:47:37+0800
13小时前
查看轨道信息
半长轴: 6861.193km
偏心率: 0.0001144
轨道倾角: 43.004°
近地点辐角 269.812°
升交点赤经 53.059°
平近点角 90.260°
近地点: 482.271km
远地点: 483.841km
周期: 94.267分钟
每日圈数: 15.275779
详细信息
固有亮度:
5
最大亮度:
2.5
卫星平台:
Starlink v1.5
覆盖范围:
全球
运营商:
太空探索技术公司
运营商所在国:
美国
制造商(研发单位):
太空探索技术公司
制造商所在国:
美国
使用方式:
暂无
卫星简介
星链(Starlink)计划是由太空探索技术公司(SpaceX)提出的一个巨型低轨卫星互联网星座项目,计划在2019年至2024年间在太空搭建由约1.2万颗卫星组成的“星链”网络,其中1584颗将部署在地球上空550千米处的近地轨道,并从2020年开始工作。该卫星仍在工作。
2D轨道图
3D轨道图
轨道高度分析图
轨道倾角分析图
轨道综合分析图
查看轨道综合分析图
交会数据列表
事件ID 空间交会对象 最接近时刻(TCA) 交会距离 交会风险概率(CRP) 交会风险指数(CRI) 操作
CDM_260904-100705-549306-384321
2026-09-04T
10:07:49+0000
0.681 km
远距离
6.078231E-5 中风险 0.71
CDM_260905-010205-549306-384321
2026-09-05T
01:02:16+0000
0.705 km
远距离
5.476298E-5 中风险 0.7
CDM_260831-163605-549306-704922
2026-08-31T
16:36:16+0000
0.711 km
远距离
3.989771E-5 中风险 0.67
CDM_260905-072305-549306-409522
2026-09-05T
07:23:32+0000
0.712 km
远距离
3.589848E-5 中风险 0.66
CDM_260905-172005-322105-549321
2026-09-05T
17:20:01+0000
0.934 km
远距离
2.917712E-5 中风险 0.64
CDM_260827-213905-549306-384322
2026-08-27T
21:39:49+0000
0.861 km
远距离
2.886478E-5 中风险 0.64
CDM_260906-080405-549306-790821
2026-09-06T
08:04:57+0000
1.040 km
极远距离
1.484807E-5 中风险 0.58
CDM_260904-072805-549306-784921
2026-09-04T
07:28:45+0000
1.127 km
极远距离
9.641826E-6 低风险 0.55
CDM_260904-114105-549306-384323
2026-09-04T
11:41:58+0000
1.214 km
极远距离
8.862456E-6 低风险 0.54
CDM_260904-174005-549306-784922
2026-09-04T
17:40:45+0000
1.467 km
极远距离
3.978749E-6 低风险 0.47